Weather in Oudtshoorn

South Africa     33°35′20″S   22°12′11″E
temp.,
°C
wind,
m/s
gust,
m/s
humid.,
%
clouds,
%
prec.,
mm/h
press.,
hPa
HPBL,
m
23 april, fri
fri2323:00+20ne22580 0.0 101717
02:00+19nne22606 0.0 101718
05:00+18nne335818 0.0 101618
08:00+20nne22520 0.0 101732
11:00+26n02312 0.0 1016796
14:00+29ssw33230 0.0 10131839
17:00+26s65343 0.0 1013584
20:00+18ssw227462 0.0 101645
24 april, sat
sat2423:00+16sw118573 0.0 101716
02:00+15ssw118853 0.0 101611
05:00+14e01917 0.0 101611
08:00+16ese117763 0.0 101651
11:00+22sse1151100 0.0 1014602
14:00+25ssw3240100 0.0 1012937
17:00+24s224429 0.0 1012531
20:00+18s11698 0.0 101321
25 april, sun
sun2523:00+17ne1172100 0.0 101411
02:00+17nnw126031 0.0 101212
05:00+18nne3351100 0.0 101123
08:00+20nne3341100 0.0 101234
11:00+27n3722100 0.0 1011746
14:00+29n4817100 0.0 10101307
17:00+28nw4718100 0.0 1008191
20:00+22sw2231100 0.0 101118
26 april, mon
mon2623:00+18s1158100 0.0 101211
02:00+18sse1156100 0.0 101111
05:00+17nnw0152100 0.0 101011
08:00+20w1146100 0.0 101014
11:00+22wnw2337100 0.0 1010332
14:00+26w711160 0.1 10082717
17:00+22wnw711330 0.0 10101532
20:00+18nw44520 0.0 101381
27 april, tue
tue2723:00+16nw33600 0.0 101447
02:00+15w1260100 0.0 1016107
05:00+15sw2367100 0.1 1017302
08:00+14ssw237962 0.4 1019490
11:00+16ssw326273 0.1 10191013
14:00+18s3249100 0.1 10181435
17:00+17sse3247100 0.0 1017963
20:00+13sse1269100 0.0 101850